Dewpoint
74 73 72 74 75 74 75 73 71 73 76 73 72 72 73 76 77 75 74 76 77 77 78 79 79 79 76 78 80 79 80 79 77 76 78 77 75 72 70 70 71 73
74 74 75 72 75 76 77 74 74 74 75 77 74 80 77 75 74 74 75 75 76 75 79 76 78 78 77 77 78 78 79 78 77 72 75 75 77 74 72 72 70 73
72 73 71 70 69 70 70 73 74 73 72 72 73 77 73 73 73 77 76 76 75 72 77 78 77 78 76 78 78 76 76 78 76 73 79 77 76 75 76 71 70 70
73 72 70 69 69 70 69 71 73 75 72 73 72 71 71 70 73 73 76 76 76 76 76 76 76 74 76 77 79 78 76 78 75 78 77 78 78 75 74 75 73 70
70 71 70 70 70 73 72 71 69 70 71 73 71 74 75 78 76 73 75 75 77 74 76 75 75 75 77 77 77 77 76 76 76 79 78 77 78 76 73 73 77 74
72 73 73 72 72 72 70 70 71 70 70 71 72 71 72 73 73 72 73 72 72 71 72 72 73 73 73 76 77 76 74 72 73 77 77 77 74 73 71 72 76 74
69 70 69 69 67 71 70 71 71 72 68 69 72 72 71 73 73 73 73 73 71 73 70 74 76 75 74 77 77 77 77 77 77 76 76 75 76 75 71 73 77 76
69 69 69 69 67 66 68 68 69 71 70 71 69 71 71 70 72 71 73 73 71 71 73 73 75 77 71 74 75 76 74 71 72 77 77 76 76 76 75 72 75 77
67 68 68 68 66 65 65 65 67 68 70 70 68 69 70 71 71 70 75 75 74 74 76 74 75 73 73 74 75 75 74 71 71 75 76 74 73 74 73 75 74 76
67 67 66 66 65 65 64 65 65 66 69 70 69 68 68 72 72 72 76 76 74 75 74 75 74 73 72 72 74 75 74 75 76 75 74 74 73 72 71 73 72 74
63 64 65 65 64 63 63 63 63 64 68 69 69 68 69 70 72 72 75 75 72 72 73 75 73 75 74 71 72 72 73 72 74 75 74 74 74 74 73 75 74 72
66 64 64 64 64 63 62 62 62 63 64 67 68 70 70 69 70 70 72 73 73 73 73 74 76 75 75 74 71 71 73 73 74 75 73 74 73 72 73 73 72 74
68 69 67 64 65 64 63 63 62 62 62 65 68 69 69 68 69 70 71 70 73 73 72 75 75 73 76 76 74 74 74 73 71 74 74 74 73 72 71 71 70 70
68 67 66 71 72 73 70 64 62 62 63 65 69 68 68 68 68 68 68 70 71 72 73 73 74 73 75 76 74 73 73 73 74 73 74 73 72 73 72 71 71 70
75 74 74 75 75 76 77 73 69 66 67 70 70 67 66 67 67 67 67 69 69 72 72 72 71 72 73 73 73 73 72 72 73 73 73 73 72 71 71 72 71 69
76 76 77 78 77 76 75 75 72 71 67 66 68 68 70 73 72 70 67 67 68 71 71 70 69 70 74 74 74 74 74 71 71 74 74 75 75 73 71 70 69 68
75 76 76 76 75 76 77 77 77 76 75 74 73 73 74 74 73 72 67 69 68 68 69 69 68 68 71 68 69 72 73 74 74 75 75 75 73 74 75 72 70 69
75 75 74 74 73 73 74 75 75 75 76 75 74 73 74 72 71 70 71 70 68 68 67 67 68 72 65 65 67 68 73 73 70 69 68 71 72 71 72 71 69 67
74 73 73 73 72 72 72 72 73 73 73 74 74 74 75 73 73 72 72 73 71 70 67 66 68 68 64 64 65 65 67 73 67 66 64 64 69 72 71 71 74 75
73 73 72 72 73 73 73 71 70 72 73 76 76 76 74 73 72 73 73 73 72 72 73 71 69 65 62 62 63 64 66 70 69 65 65 65 69 68 65 70 75 72
72 73 72 72 73 73 74 74 74 75 73 75 76 75 74 74 75 74 73 72 71 70 70 68 68 63 62 62 63 64 66 71 71 67 67 69 69 70 73 70 71 70
71 71 71 71 71 72 72 72 72 72 72 73 75 75 75 75 75 74 73 72 73 72 70 69 67 61 61 61 60 61 65 71 73 74 72 70 69 70 71 74 73 72
71 70 69 69 70 70 70 71 71 71 72 73 73 73 74 74 74 72 73 72 72 72 73 72 70 62 59 58 59 61 68 72 73 73 73 72 71 73 75 72 73 75
70 70 70 70 70 70 70 70 71 71 71 73 73 73 73 73 74 74 73 73 72 72 72 71 70 62 57 57 58 60 67 72 75 76 74 74 74 74 74 74 73 75
69 69 70 69 69 69 69 70 71 71 72 72 72 72 73 73 73 73 72 73 72 72 72 71 68 64 56 56 57 59 67 73 76 75 74 74 74 74 73 74 74 74
68 69 68 68 68 68 69 70 70 71 71 72 72 72 72 72 71 72 72 72 72 72 72 69 67 65 62 55 56 57 60 71 76 74 73 73 73 73 73 72 73 73